Simultaneous Nadir Overpasses (SNOs) Predictions

Prediction of SNOs between GOES-14 and AQUA Satellite Orbit:

Table of predicted SNOs for the next 14.0 days since TLE Epoch: 4/27/2024
Index Date Time (GOES-14) GOES-14 Lat,Lon AQUA Lat,Lon Distance(km) Time Diff (sec)
1 04/27/2024 09:08:57 0.15,-108.62 -0.45,-105.91 308.25 80
2 04/27/2024 21:29:19 -0.14,-108.62 -0.60,-110.84 252.55 80
3 04/29/2024 21:15:47 -0.14,-108.62 0.24,-106.88 198.28 80
4 04/30/2024 09:36:00 0.13,-108.62 0.82,-111.77 357.89 80
5 05/02/2024 09:17:06 0.14,-108.62 -0.02,-107.80 93.67 80
6 05/02/2024 21:37:27 -0.13,-108.61 -1.03,-112.72 467.77 80
7 05/04/2024 21:21:11 -0.14,-108.62 -0.19,-108.74 15.07 80
8 05/06/2024 21:07:34 -0.14,-108.62 0.69,-104.77 438.72 80
9 05/07/2024 09:27:45 0.12,-108.64 0.35,-109.66 116.13 80
10 05/09/2024 09:08:47 0.13,-108.63 -0.53,-105.67 337.65 80
11 05/09/2024 21:29:05 -0.11,-108.62 -0.55,-110.58 224.04 80
